EW3803 Weather Reports


time (UTC)temp
C
wind
direction
speed
KPH
gust
KPH
rain 1hr
cm
rain 24hr
cm
rain mn
cm
humidity
%
barometer
mb
20260901200045 18 232 14.5 24.1 0.00 0.00 0.00 86 1019.1
20260901194537 18 249 14.5 22.5 0.00 0.00 0.00 86 1019.1
20260901193034 19 248 14.5 22.5 0.00 0.00 0.00 85 1019.1
20260901191528 19 250 12.9 19.3 0.00 0.00 0.00 85 1018.8
20260901190048 19 248 12.9 22.5 0.00 0.00 0.00 84 1018.7
20260901184540 20 217 14.5 24.1 0.00 0.00 0.00 82 1018.7
20260901183035 20 223 12.9 20.9 0.00 0.00 0.00 82 1018.7
20260901181534 20 250 11.3 22.5 0.00 0.00 0.00 82 1018.8
20260901180031 20 229 12.9 27.4 0.00 0.00 0.00 82 1018.8
20260901174535 20 225 17.7 29.0 0.00 0.00 0.00 81 1018.7
20260901173032 20 190 8.0 24.1 0.00 0.00 0.00 82 1018.8
20260901171534 20 181 11.3 22.5 0.00 0.00 0.00 83 1018.7
20260901170030 21 229 12.9 27.4 0.00 0.00 0.00 81 1018.6
20260901164510 21 226 12.9 24.1 0.00 0.00 0.00 80 1018.5
20260901163023 21 236 14.5 22.5 0.00 0.00 0.00 81 1018.7
20260901161519 20 204 9.7 20.9 0.00 0.00 0.00 82 1018.6
20260901160026 20 194 11.3 24.1 0.00 0.00 0.00 82 1018.4
20260901154532 20 228 11.3 19.3 0.00 0.00 0.00 81 1018.6
20260901153027 21 232 14.5 22.5 0.00 0.00 0.00 79 1018.5
20260901151523 21 203 14.5 25.7 0.00 0.00 0.00 78 1018.6
20260901150031 21 219 12.9 25.7 0.00 0.00 0.00 77 1018.7
20260901144530 21 164 14.5 29.0 0.00 0.00 0.00 75 1018.6
20260901143037 22 200 14.5 29.0 0.00 0.00 0.00 74 1018.8
20260901141516 23 223 6.4 19.3 0.00 0.00 0.00 71 1019.0
20260901140026 22 227 11.3 17.7 0.00 0.00 0.00 77 1019.1
20260901134530 21 190 9.7 24.1 0.00 0.00 0.00 78 1019.2
20260901133037 21 209 14.5 22.5 0.00 0.00 0.00 77 1019.1
20260901131514 21 213 14.5 25.7 0.00 0.00 0.00 74 1019.2
20260901130019 22 235 12.9 24.1 0.00 0.00 0.00 73 1019.2
20260901124528 21 239 19.3 25.7 0.00 0.00 0.00 78 1019.4
20260901123029 21 209 14.5 22.5 0.00 0.00 0.00 79 1019.4
20260901121530 21 198 9.7 24.1 0.00 0.00 0.00 79 1019.4
20260901120019 21 230 11.3 20.9 0.00 0.00 0.00 76 1019.5
20260901114524 21 211 9.7 19.3 0.00 0.00 0.00 77 1019.6
20260901113026 20 227 11.3 16.1 0.00 0.00 0.00 78 1019.9
20260901111530 20 190 11.3 20.9 0.00 0.00 0.00 76 1019.8
20260901110016 20 233 8.0 16.1 0.00 0.00 0.00 78 1019.8
20260901104538 20 224 11.3 17.7 0.00 0.00 0.00 76 1019.9
20260901103005 20 172 11.3 19.3 0.00 0.00 0.00 75 1020.0
20260901101510 21 225 12.9 24.1 0.00 0.00 0.00 73 1020.0
20260901100014 20 269 14.5 20.9 0.00 0.00 0.00 76 1020.0
20260901094520 20 244 8.0 19.3 0.00 0.00 0.00 79 1019.8
20260901093004 20 245 12.9 22.5 0.00 0.00 0.00 78 1019.7
20260901091506 20 244 12.9 20.9 0.00 0.00 0.00 77 1019.7
20260901090018 20 241 9.7 24.1 0.00 0.00 0.00 78 1019.7
20260901084515 20 249 11.3 19.3 0.00 0.00 0.00 80 1019.6
20260901083024 19 208 11.3 19.3 0.00 0.00 0.00 80 1019.7
20260901081502 19 252 12.9 19.3 0.00 0.00 0.00 82 1019.5
20260901080012 18 269 11.3 20.9 0.00 0.00 0.00 83 1019.5
20260901074516 18 256 11.3 24.1 0.00 0.00 0.00 84 1019.5
20260901073021 18 270 14.5 20.9 0.00 0.00 0.00 85 1019.3
20260901071529 18 227 11.3 19.3 0.00 0.00 0.00 87 1019.5
20260901070010 17 259 9.7 17.7 0.00 0.00 0.00 88 1019.4
20260901064512 17 247 11.3 16.1 0.00 0.00 0.00 88 1019.3
20260901063016 17 250 12.9 19.3 0.00 0.00 0.00 88 1019.2
20260901061526 17 234 11.3 19.3 0.00 0.00 0.00 88 1019.2
20260901060030 16 244 9.7 16.1 0.00 0.00 0.00 89 1019.1
20260901054511 16 252 9.7 16.1 0.00 0.00 0.00 90 1019.0
20260901053016 16 241 6.4 8.0 0.00 0.00 0.00 90 1019.0
20260901051520 16 266 3.2 4.8 0.00 0.00 0.00 89 1019.1
20260901050029 16 273 3.2 9.7 0.00 0.00 0.00 89 1019.1
20260901044511 16 282 4.8 6.4 0.00 0.00 0.00 89 1019.0
20260901043020 15 290 3.2 6.4 0.00 0.00 0.00 88 1018.8
20260901041523 16 274 6.4 11.3 0.00 0.00 0.00 88 1018.9
20260901040025 16 284 3.2 8.0 0.00 0.00 0.00 87 1019.1
20260901034540 16 300 4.8 8.0 0.00 0.00 0.00 89 1018.9
20260901033014 16 296 8.0 12.9 0.00 0.00 0.00 89 1019.1
20260901031529 16 290 6.4 12.9 0.00 0.00 0.00 89 1019.0
20260901030026 16 300 6.4 9.7 0.00 0.00 0.00 89 1019.1
20260901024531 16 296 8.0 12.9 0.00 0.00 0.00 89 1019.1
20260901023032 16 299 6.4 9.7 0.00 0.00 0.00 89 1019.2
20260901021518 16 269 6.4 12.9 0.00 0.00 0.00 88 1019.3
20260901020030 16 269 9.7 12.9 0.00 0.00 0.00 88 1019.3
20260901014530 16 267 8.0 12.9 0.00 0.00 0.00 87 1019.4
20260901013039 16 288 9.7 12.9 0.00 0.00 0.00 87 1019.5
20260901011537 16 257 9.7 14.5 0.00 0.00 0.00 86 1019.6
20260901010024 17 265 11.3 17.7 0.00 0.00 0.00 85 1019.7
20260901004528 17 255 12.9 19.3 0.00 0.00 0.00 84 1019.7
20260901003030 17 257 11.3 17.7 0.00 0.00 0.00 83 1020.0
20260901001548 17 259 11.3 22.5 0.00 0.00 0.00 83 1020.0
20260901000019 17 263 12.9 19.3 0.00 0.00 0.00 83 1020.0
20260831234525 17 277 12.9 20.9 0.00 0.00 0.00 83 1020.0
20260831233027 17 260 14.5 20.9 0.00 0.00 0.00 83 1020.1
20260831231530 18 287 14.5 29.0 0.00 0.00 0.00 82 1020.1
20260831230032 18 264 16.1 22.5 0.00 0.00 0.00 82 1020.0
20260831224524 18 275 14.5 25.7 0.00 0.00 0.00 80 1020.1
20260831223027 18 284 17.7 29.0 0.00 0.00 0.00 79 1020.1
20260831221531 18 258 22.5 30.6 0.00 0.00 0.00 79 1020.0
20260831220032 18 248 16.1 24.1 0.00 0.00 0.00 86 1019.9
20260831214535 18 246 17.7 29.0 0.00 0.00 0.00 86 1019.8
20260831213025 18 263 17.7 30.6 0.00 0.00 0.00 85 1019.8
20260831211528 18 237 19.3 29.0 0.00 0.00 0.00 85 1019.8
20260831210032 18 239 20.9 32.2 0.00 0.00 0.00 85 1019.5
20260831204533 18 239 16.1 29.0 0.00 0.00 0.00 85 1019.4
20260831203030 19 221 17.7 29.0 0.00 0.00 0.00 84 1019.4
20260831201526 19 250 16.1 32.2 0.00 0.00 0.00 83 1019.2